Location: B?jaj?g
(11.7167°N, 92.6667°E)
Time: 05:27:54
(UTC+00:00)

NATO 3D Rocket - Pass Details

Date: 18 September 2020
Orbit: 670 x 2296 km, 21.5° (Epoch: 20 October)

Event Time Altitude Azimuth Distance (km) Brightness Sun altitude
Rises 12:47:20 0° 232° (SW) 3,399 7.6 -15.3°
Reaches altitude 10° 12:50:17 10° 223° (SW) 2,299 6.5 -16.1°
Maximum altitude 12:54:55 33° 159° (SSE) 1,148 4.2 -17.2°
Enters shadow 12:56:17 28° 126° (SE) 1,262 4.2 -17.5°
